Huntsville Madison, AL

5:36 PM CDT on October 21, 2017 (GMT -0500)
Huntsville Madison

Weather History for KMDQ - March, 2014

Change the Weather History Date:

Friday, March 7, 2014

  Actual Average (KHSV) Record (KHSV)
Temperature  
Mean Temperature 50 °F -  
Max Temperature 62 °F 59 °F 82 °F (1956)
Min Temperature 37 °F 37 °F 21 °F (1920)
Degree Days  
Heating Degree Days 16    
Moisture  
Dew Point 30 °F    
Average Humidity 59    
Maximum Humidity 93    
Minimum Humidity 20    
Precipitation  
Precipitation 0.00 in - - ()
Sea Level Pressure  
Sea Level Pressure 30.01 in    
Wind  
Wind Speed 0 mph (NW)    
Max Wind Speed 7 mph    
Max Gust Speed -    
Visibility 9 miles    
Events      
Averages and records for this station are not official NWS values.
T = Trace of Precipitation, MM = Missing Value Source: NWS Daily Summary

Daily Weather History Graph

Daily Weather History Graph

Search for Another Location

Airport or City:

Trip Planner

Search our weather history database for the weather conditions in past years. The results will help you decide how hot, cold, wet, or windy it might be!

Date:

Astronomy

Mar. 07, 2014 Rise Set
Actual Time 6:07 AM CST 5:47 PM CST
Civil Twilight 5:42 AM CST 6:12 PM CST
Nautical Twilight 5:13 AM CST 6:41 PM CST
Astronomical Twilight 4:43 AM CST 7:11 PM CST
Moon 10:14 AM CST (3/7) No Moon Set
Length of Visible Light 12h 30m
Length of Day
11h 39m
Waxing Crescent, 42% of the Moon is Illuminated
Mar 7
Waxing Crescent
Mar 8
First Quarter
Mar 16
Full
Mar 23
Last Quarter
Mar 30
New

Hourly Weather History & Observations

Time (CST) Temp. Dew Point Humidity Pressure Visibility Wind Dir Wind Speed Gust Speed Precip Events Conditions
12:15 AM 39.2 °F 35.6 °F 87% 30.00 in 7.0 mi Calm Calm - N/A   Clear
12:35 AM 39.2 °F 35.6 °F 87% 29.99 in 5.0 mi Calm Calm - N/A   Scattered Clouds
12:55 AM 39.2 °F 35.6 °F 87% 29.99 in 5.0 mi Calm Calm - N/A   Clear
1:15 AM 39.2 °F 35.6 °F 87% 29.98 in 5.0 mi Calm Calm - N/A   Clear
1:35 AM 39.2 °F 35.6 °F 87% 29.98 in 5.0 mi Calm Calm - N/A   Clear
1:55 AM 39.2 °F 35.6 °F 87% 29.98 in 5.0 mi Calm Calm - N/A   Clear
2:15 AM 37.4 °F 35.6 °F 93% 29.98 in 2.5 mi Calm Calm - N/A   Mostly Cloudy
2:35 AM 39.2 °F 35.6 °F 87% 29.97 in 3.0 mi Calm Calm - N/A   Overcast
2:55 AM 39.2 °F 35.6 °F 87% 29.97 in 4.0 mi Calm Calm - N/A   Overcast
3:15 AM 39.2 °F 35.6 °F 87% 29.97 in 5.0 mi Calm Calm - N/A   Mostly Cloudy
3:35 AM 39.2 °F 35.6 °F 87% 29.98 in 10.0 mi Calm Calm - N/A   Mostly Cloudy
3:55 AM 39.2 °F 33.8 °F 81% 29.97 in 10.0 mi Calm Calm - N/A   Mostly Cloudy
4:15 AM 37.4 °F 33.8 °F 87% 29.99 in 7.0 mi Calm Calm - N/A   Mostly Cloudy
4:35 AM 37.4 °F 33.8 °F 87% 30.00 in 7.0 mi Calm Calm - N/A   Overcast
4:55 AM 39.2 °F 33.8 °F 81% 30.01 in 10.0 mi Calm Calm - N/A   Overcast
5:15 AM 37.4 °F 32.0 °F 81% 30.02 in 10.0 mi Calm Calm - N/A   Overcast
5:35 AM 37.4 °F 32.0 °F 81% 30.02 in 10.0 mi Calm Calm - N/A   Overcast
5:55 AM 37.4 °F 32.0 °F 81% 30.03 in 10.0 mi Calm Calm - N/A   Overcast
6:15 AM 37.4 °F 32.0 °F 81% 30.03 in 10.0 mi Calm Calm - N/A   Overcast
6:35 AM 37.4 °F 32.0 °F 81% 30.03 in 10.0 mi Calm Calm - N/A   Overcast
6:55 AM 37.4 °F 32.0 °F 81% 30.05 in 7.0 mi Calm Calm - N/A   Scattered Clouds
7:15 AM 39.2 °F 32.0 °F 75% 30.05 in 10.0 mi Calm Calm - N/A   Clear
7:35 AM 41.0 °F 32.0 °F 70% 30.05 in 10.0 mi Calm Calm - N/A   Clear
7:55 AM 41.0 °F 32.0 °F 70% 30.06 in 10.0 mi Calm Calm - N/A   Clear
8:15 AM 42.8 °F 32.0 °F 66% 30.06 in 10.0 mi Calm Calm - N/A   Clear
8:35 AM 42.8 °F 32.0 °F 66% 30.06 in 10.0 mi Calm Calm - N/A   Clear
8:55 AM 44.6 °F 32.0 °F 61% 30.06 in 10.0 mi Calm Calm - N/A   Clear
9:15 AM 46.4 °F 32.0 °F 57% 30.06 in 10.0 mi Calm Calm - N/A   Clear
9:35 AM 46.4 °F 32.0 °F 57% 30.06 in 10.0 mi Calm Calm - N/A   Clear
9:55 AM 50.0 °F 32.0 °F 50% 30.06 in 10.0 mi Calm Calm - N/A   Clear
10:15 AM 50.0 °F 32.0 °F 50% 30.05 in 10.0 mi Calm Calm - N/A   Clear
10:35 AM 51.8 °F 32.0 °F 47% 30.05 in 10.0 mi Calm Calm - N/A   Clear
10:55 AM 51.8 °F 32.0 °F 47% 30.04 in 10.0 mi Calm Calm - N/A   Clear
11:15 AM 53.6 °F 30.2 °F 41% 30.03 in 10.0 mi Calm Calm - N/A   Clear
11:35 AM 55.4 °F 30.2 °F 38% 30.02 in 10.0 mi Calm Calm - N/A   Clear
11:55 AM 55.4 °F 30.2 °F 38% 30.01 in 10.0 mi NW 6.9 mph - N/A   Clear
12:15 PM 57.2 °F 26.6 °F 31% 30.00 in 10.0 mi Calm Calm - N/A   Clear
12:35 PM 59.0 °F 26.6 °F 29% 29.99 in 10.0 mi Calm Calm - N/A   Clear
12:55 PM 59.0 °F 26.6 °F 29% 29.98 in 10.0 mi Calm Calm - N/A   Clear
1:15 PM 59.0 °F 23.0 °F 25% 29.97 in 10.0 mi Calm Calm - N/A   Clear
1:35 PM 60.8 °F 23.0 °F 23% 29.97 in 10.0 mi Calm Calm - N/A   Clear
1:55 PM 60.8 °F 24.8 °F 25% 29.97 in 10.0 mi Calm Calm - N/A   Clear
2:15 PM 60.8 °F 21.2 °F 22% 29.97 in 10.0 mi Calm Calm - N/A   Clear
2:35 PM 60.8 °F 21.2 °F 22% 29.97 in 10.0 mi Calm Calm - N/A   Clear
2:55 PM 60.8 °F 21.2 °F 22% 29.96 in 10.0 mi Calm Calm - N/A   Clear
3:15 PM 60.8 °F 19.4 °F 20% 29.97 in 10.0 mi Calm Calm - N/A   Clear
3:35 PM 62.6 °F 21.2 °F 20% 29.97 in 10.0 mi Calm Calm - N/A   Clear
3:55 PM 60.8 °F 21.2 °F 22% 29.96 in 10.0 mi Calm Calm - N/A   Clear
4:15 PM 60.8 °F 21.2 °F 22% 29.96 in 10.0 mi Calm Calm - N/A   Clear
4:35 PM 60.8 °F 21.2 °F 22% 29.97 in 10.0 mi Calm Calm - N/A   Clear
4:55 PM 60.8 °F 21.2 °F 22% 29.97 in 10.0 mi Calm Calm - N/A   Clear
5:15 PM 60.8 °F 21.2 °F 22% 29.97 in 10.0 mi Calm Calm - N/A   Clear
5:35 PM 59.0 °F 21.2 °F 23% 29.98 in 10.0 mi Calm Calm - N/A   Clear
5:55 PM 57.2 °F 23.0 °F 27% 29.98 in 10.0 mi Calm Calm - N/A   Clear
6:15 PM 53.6 °F 28.4 °F 38% 29.99 in 10.0 mi Calm Calm - N/A   Clear
6:35 PM 51.8 °F 30.2 °F 44% 29.99 in 10.0 mi Calm Calm - N/A   Clear
6:55 PM 50.0 °F 30.2 °F 47% 30.00 in 10.0 mi Calm Calm - N/A   Clear
7:15 PM 50.0 °F 32.0 °F 50% 30.00 in 10.0 mi Calm Calm - N/A   Clear
7:35 PM 46.4 °F 32.0 °F 57% 30.00 in 10.0 mi Calm Calm - N/A   Clear
7:55 PM 44.6 °F 32.0 °F 61% 30.01 in 10.0 mi Calm Calm - N/A   Clear
8:15 PM 44.6 °F 32.0 °F 61% 30.02 in 10.0 mi Calm Calm - N/A   Clear
8:35 PM 42.8 °F 33.8 °F 70% 30.02 in 10.0 mi Calm Calm - N/A   Clear
8:55 PM 42.8 °F 33.8 °F 70% 30.02 in 10.0 mi Calm Calm - N/A   Clear
9:15 PM 41.0 °F 35.6 °F 81% 30.02 in 10.0 mi Calm Calm - N/A   Clear
9:35 PM 41.0 °F 33.8 °F 76% 30.02 in 10.0 mi Calm Calm - N/A   Clear
9:55 PM 41.0 °F 33.8 °F 76% 30.02 in 10.0 mi Calm Calm - N/A   Clear
10:15 PM 41.0 °F 32.0 °F 70% 30.03 in 10.0 mi Calm Calm - N/A   Clear
10:35 PM 41.0 °F 32.0 °F 70% 30.04 in 10.0 mi Calm Calm - N/A   Clear
10:55 PM 39.2 °F 32.0 °F 75% 30.03 in 10.0 mi Calm Calm - N/A   Clear
11:15 PM 41.0 °F 33.8 °F 76% 30.03 in 10.0 mi Calm Calm - N/A   Clear
11:35 PM 37.4 °F 33.8 °F 87% 30.03 in 10.0 mi Calm Calm - N/A   Clear
11:55 PM 37.4 °F 32.0 °F 81% 30.04 in 10.0 mi Calm Calm - N/A   Clear